TimePST,TemperatureF,Dew PointF,Humidity,Sea Level PressureIn,VisibilityMPH,Wind Direction,Wind SpeedMPH,Gust SpeedMPH,PrecipitationIn,Events,Conditions,WindDirDegrees,DateUTC
12:53 AM,43.0,39.0,86,29.87,10.0,Calm,Calm,-,N/A,,Clear,0,2012-11-09 08:53:00
1:53 AM,43.0,39.9,89,29.87,10.0,Calm,Calm,-,N/A,,Mostly Cloudy,0,2012-11-09 09:53:00
2:32 AM,42.8,39.2,87,29.93,1.8,WNW,5.8,18.4,0.16,Rain-Thunderstorm,Heavy Thunderstorms and Rain,290,2012-11-09 10:32:00
2:38 AM,42.8,41.0,93,29.93,3.0,Calm,Calm,-,0.17,Rain-Thunderstorm,Thunderstorms and Rain,0,2012-11-09 10:38:00
2:45 AM,41.0,39.2,93,29.93,7.0,SE,4.6,-,0.18,Rain-Thunderstorm,Light Thunderstorms and Rain,130,2012-11-09 10:45:00
2:53 AM,42.1,41.0,96,29.88,9.0,SSE,4.6,-,0.18,Rain,Light Rain,150,2012-11-09 10:53:00
3:53 AM,42.1,42.1,100,29.87,10.0,ESE,3.5,-,0.00,,Overcast,120,2012-11-09 11:53:00
4:53 AM,43.0,42.1,97,29.88,10.0,South,3.5,-,N/A,,Mostly Cloudy,190,2012-11-09 12:53:00
5:43 AM,42.8,41.0,93,29.92,10.0,Calm,Calm,-,N/A,,Mostly Cloudy,0,2012-11-09 13:43:00
5:53 AM,42.1,41.0,96,29.88,10.0,Calm,Calm,-,N/A,,Scattered Clouds,0,2012-11-09 13:53:00
6:01 AM,41.0,41.0,100,29.92,10.0,SSE,3.5,-,N/A,,Mostly Cloudy,150,2012-11-09 14:01:00
6:15 AM,42.8,41.0,93,29.92,10.0,South,3.5,-,N/A,,Scattered Clouds,180,2012-11-09 14:15:00
6:53 AM,39.9,39.9,100,29.89,10.0,SSE,5.8,-,N/A,,Clear,160,2012-11-09 14:53:00
7:53 AM,43.0,42.1,97,29.90,10.0,South,4.6,-,N/A,,Clear,170,2012-11-09 15:53:00
8:53 AM,46.0,44.1,93,29.91,10.0,South,3.5,-,N/A,,Partly Cloudy,180,2012-11-09 16:53:00
9:53 AM,50.0,42.1,74,29.91,10.0,West,6.9,-,N/A,,Scattered Clouds,270,2012-11-09 17:53:00
10:53 AM,52.0,39.9,63,29.91,10.0,West,6.9,-,N/A,,Mostly Cloudy,260,2012-11-09 18:53:00
11:53 AM,53.1,37.0,55,29.90,10.0,West,9.2,-,N/A,,Scattered Clouds,280,2012-11-09 19:53:00
12:53 PM,54.0,37.9,55,29.88,10.0,West,10.4,-,N/A,,Clear,280,2012-11-09 20:53:00
1:53 PM,55.9,36.0,47,29.88,10.0,WNW,12.7,18.4,N/A,,Scattered Clouds,290,2012-11-09 21:53:00
2:53 PM,55.9,36.0,47,29.87,10.0,WNW,10.4,-,N/A,,Scattered Clouds,300,2012-11-09 22:53:00
3:53 PM,55.0,35.1,47,29.87,10.0,West,8.1,-,N/A,,Clear,270,2012-11-09 23:53:00
4:53 PM,53.1,37.9,57,29.89,10.0,West,11.5,-,N/A,,Scattered Clouds,260,2012-11-10 00:53:00
5:53 PM,50.0,37.9,63,29.90,10.0,WSW,8.1,-,N/A,,Scattered Clouds,250,2012-11-10 01:53:00
6:53 PM,48.9,39.0,69,29.92,10.0,SW,6.9,-,N/A,,Clear,230,2012-11-10 02:53:00
7:53 PM,46.9,39.0,74,29.93,10.0,SW,5.8,-,N/A,,Clear,220,2012-11-10 03:53:00
8:53 PM,46.9,39.9,77,29.94,10.0,SSW,4.6,-,N/A,,Scattered Clouds,200,2012-11-10 04:53:00
9:53 PM,45.0,39.9,82,29.94,10.0,SSW,5.8,-,N/A,,Partly Cloudy,210,2012-11-10 05:53:00
10:53 PM,44.1,39.9,85,29.94,10.0,SW,6.9,-,N/A,,Clear,220,2012-11-10 06:53:00
11:53 PM,44.1,39.0,82,29.94,10.0,SSW,6.9,-,N/A,,Clear,200,2012-11-10 07:53:00